Location: Bussy-Saint-Georges
(48.8410°N, 2.7017°E)
Time: 22:00:44
(UTC+00:00)

SKYMED 3 - Pass Details

Date: 18 October 2021
Orbit: 621 x 623 km, 97.9° (Epoch: 07 December)

Event Time Altitude Azimuth Distance (km) Brightness Sun altitude
Rises 18:00:27 0° 14° (NNE) 2,919 7.9 -11.7°
Reaches altitude 10° 18:02:40 10° 15° (NNE) 2,007 7.0 -12.1°
Maximum altitude 18:07:02 82° 103° (ESE) 637 4.5 -12.8°
Drops below altitude 10° 18:11:23 10° 192° (SSW) 1,990 7.3 -13.5°
Sets 18:13:33 0° 193° (SSW) 2,891 8.2 -13.9°
